Location: Red Rock Canyon
(36.1333°N, 115.4333°W)
Time: 00:24:40
(UTC-07:00)

ISS - Visible Passes

Search period start: 01 June 2016 00:00
Search period end: 11 June 2016 00:00
Orbit: 402 x 404 km, 51.6° (Epoch: 01 June)

Date Brightness Start Highest point End Pass type
(mag) Time Alt. Az. Time Alt. Az. Time Alt. Az.
04 Jun 0.2 00:16:36 10° NNW 00:16:50 11° NNW 00:16:50 11° NNW visible
04 Jun -0.1 23:24:37 10° N 23:25:36 11° NNE 23:25:36 11° NNE visible
06 Jun 0.2 00:06:54 10° NNW 00:07:00 11° NNW 00:07:00 11° NNW visible
06 Jun -0.5 23:14:28 10° NNW 23:15:52 17° N 23:15:52 17° N visible
07 Jun -0.6 22:22:18 10° N 22:23:54 13° NNE 22:24:45 12° NE visible
08 Jun -0.8 23:04:49 10° NW 23:06:17 22° NNW 23:06:17 22° NNW visible
09 Jun -1.4 22:12:18 10° NNW 22:14:58 23° NNE 22:15:15 22° NE visible
10 Jun -0.7 21:20:01 10° N 21:21:56 15° NNE 21:23:50 10° ENE visible
10 Jun -1.0 22:55:27 10° NW 22:56:51 23° NW 22:56:51 23° NW visible
